Retour au catalogue

STARLINK-11283

ActifCommunicationsVLEO
NORAD 60993·PAYLOAD·🇺🇸 United States

Lancé Sep 5, 2024 depuis Cape Canaveral Space Force Station

Loading…

Prochains Passages (prochaines 24 heures)

TLE

FraisSource: CelesTrak SupGP

Époque: Sep 15, 2026, 03:13 UTC

1 60993C 24158D   26258.13451389 -.00066227  00000+0 -54522-3 0  2587
2 60993  53.1573  67.7243 0001043  80.3839 302.7771 15.69756434    19

Suivez STARLINK-11283 en temps réel avec AllMySat

Download on the App Store